This demonstration page uses our WeatherBlox Daily Observations layout. Learn more.

Left ArrowRight Arrow

Hourly Observations for March 7, 2016

Temp ( °F °C ) Dew Point ( °F °C ) Humidity (%) Winds ( mph kmh ) Pressure ( in mb ) Visibility ( mi km ) Precip ( " mm )
12:54 am 00:54 Clear 56 13.3 44 6.7 65 65 S 12 19 29.56 1001 10 16 0.00 0.00
1:54 am 01:54 Clear 55 12.8 45 7.2 69 69 S 10 17 29.54 1001 10 16 0.00 0.00
2:54 am 02:54 Clear 54 12.2 46 7.8 75 75 SSE 10 17 29.53 1000 10 16 0.00 0.00
3:54 am 03:54 Mostly Clear 52 11.1 46 7.8 80 80 S 12 19 29.52 1000 10 16 0.00 0.00
4:28 am 04:28 Mostly Cloudy 52 11 46 8 82 82 SSE 10 17 29.56 1001 10 16 0.00 0.00
4:54 am 04:54 Mostly Cloudy 54 12.2 48 8.9 80 80 SSE 9 15 29.51 999 10 16 0.00 0.00
5:54 am 05:54 Cloudy 57 13.9 51 10.6 81 81 S 12 19 29.51 999 10 16 0.00 0.00
6:39 am 06:39 Cloudy 59 15 54 12.2 83 83 S 14 22 29.53 1000 10 16 0.00 0.00
6:54 am 06:54 Cloudy 60 15.6 54 12.2 80 80 S 13 20 29.52 1000 9 14 0.00 0.00
7:54 am 07:54 Cloudy 61 16.1 55 12.8 81 81 S 10 17 29.53 1000 7 11 0.00 0.00
8:30 am 08:30 Cloudy 63 17 55 13 77 77 S 12 19 29.56 1001 7 11 0.00 0.00
8:54 am 08:54 Cloudy 64 17.8 56 13.3 75 75 S 17 28 29.53 1000 8 13 0.00 0.00
9:30 am 09:30 Mostly Cloudy 66 19 57 14 73 73 S 17 28 29.50 999 8 13 0.00 0.00
9:54 am 09:54 Mostly Cloudy 68 20 57 13.9 68 68 S 20 31 29.52 1000 8 13 0.00 0.00
10:29 am 10:29 Mostly Cloudy 70 21.1 54 12.2 57 57 SSW 18 30 29.50 999 9 14 0.00 0.00
10:54 am 10:54 Mostly Cloudy 72 22.2 54 12.2 53 53 S 18 30 29.50 999 9 14 0.00 0.00
11:54 am 11:54 Sunny 74 23.3 53 11.7 48 48 S 26 43 29.50 999 10 16 0.00 0.00
12:54 pm 12:54 Sunny 77 25 54 12.2 45 45 S 21 33 29.48 998 10 16 0.00 0.00
1:54 pm 13:54 Sunny 78 25.6 54 12.2 43 43 S 23 37 29.46 998 10 16 0.00 0.00
2:54 pm 14:54 Sunny 79 26.1 55 12.8 44 44 S 25 41 29.44 997 9 14 0.00 0.00
3:54 pm 15:54 Sunny 79 26.1 53 11.7 41 41 S 24 39 29.44 997 10 16 0.00 0.00
4:54 pm 16:54 Sunny 77 25 52 11.1 42 42 S 26 43 29.44 997 10 16 0.00 0.00
5:54 pm 17:54 Sunny 73 22.8 54 12.2 51 51 S 29 46 29.45 997 9 14 0.00 0.00
6:54 pm 18:54 Partly Cloudy 71 21.7 54 12.2 55 55 S 28 44 29.49 999 10 16 0.00 0.00
7:54 pm 19:54 Clear 67 19.4 55 12.8 66 66 S 24 39 29.51 999 10 16 0.00 0.00
8:54 pm 20:54 Clear 65 18.3 55 12.8 70 70 S 21 33 29.53 1000 10 16 0.00 0.00
9:37 pm 21:37 Mostly Cloudy 64 17.8 56 13.3 75 75 S 25 41 29.56 1001 10 16 0.00 0.00
9:54 pm 21:54 Mostly Cloudy 64 17.8 56 13.3 75 75 S 21 33 29.54 1000 10 16 0.00 0.00
10:04 pm 22:04 Mostly Clear 64 18 55 13 73 73 S 24 39 29.56 1001 10 16 0.00 0.00
10:54 pm 22:54 Mostly Clear 63 17.2 57 13.9 81 81 S 24 39 29.53 1000 10 16 0.00 0.00
11:10 pm 23:10 Mostly Cloudy 64 18 57 14 78 78 S 25 41 29.56 1001 10 16 0.00 0.00
11:54 pm 23:54 Cloudy 64 17.8 57 13.9 78 78 S 21 33 29.52 1000 10 16 0.00 0.00

Powered by AerisWeather